N617DM KCDH-KHHW

Flight info

Callsign N617DM
Flight time 1h 10m
Altitude 20000
Route WASHO GLOVE
Aircraft PA24/L-SBDGRWY/SB1

Departure

Time 2026-05-06 15:36
Airport Harrell Field (KCDH)

Arrival

Time 2026-05-06 16:47
Airport Stan Stamper Municipal Airport (KHHW)
Time Latitude Longitude Altitude Speed Heading
2026-05-06 15:34 33.61509 -92.76674 123 ft 1 kts 75°
2026-05-06 15:34 33.61510 -92.76672 123 ft 0 kts 75°
2026-05-06 15:34 33.61510 -92.76625 124 ft 9 kts 109°
2026-05-06 15:34 33.61463 -92.76585 122 ft 9 kts 156°
2026-05-06 15:35 33.61415 -92.76544 122 ft 4 kts 110°
2026-05-06 15:35 33.61421 -92.76509 120 ft 7 kts 33°
2026-05-06 15:35 33.61569 -92.76481 122 ft 48 kts
2026-05-06 15:35 33.62023 -92.76401 193 ft 74 kts 11°
2026-05-06 15:36 33.62469 -92.76327 379 ft 73 kts 11°
2026-05-06 15:36 33.62985 -92.76252 575 ft 74 kts
2026-05-06 15:36 33.63533 -92.76190 754 ft 79 kts
2026-05-06 15:36 33.64053 -92.76298 940 ft 79 kts 334°
2026-05-06 15:37 33.64469 -92.76714 1117 ft 82 kts 308°
2026-05-06 15:37 33.64586 -92.77415 1297 ft 91 kts 268°
2026-05-06 15:37 33.64439 -92.78228 1489 ft 107 kts 268°
2026-05-06 15:37 33.64494 -92.79051 1874 ft 95 kts 283°
2026-05-06 15:38 33.64488 -92.79817 2118 ft 86 kts 269°
2026-05-06 15:38 33.64531 -92.80543 2186 ft 100 kts 292°
2026-05-06 15:38 33.64765 -92.81182 2570 ft 69 kts 291°
2026-05-06 15:38 33.64976 -92.81788 2572 ft 82 kts 287°
2026-05-06 15:39 33.65059 -92.82395 2801 ft 76 kts 268°
2026-05-06 15:39 33.65469 -92.82978 2755 ft 97 kts 312°
2026-05-06 15:39 33.65678 -92.83288 3221 ft 58 kts 285°
2026-05-06 15:39 33.65660 -92.84192 3248 ft 76 kts 249°
2026-05-06 15:40 33.65540 -92.84575 3402 ft 73 kts 250°
2026-05-06 15:40 33.65322 -92.85171 3477 ft 81 kts 246°
2026-05-06 15:40 33.65086 -92.85772 3601 ft 80 kts 249°
2026-05-06 15:40 33.64969 -92.86416 3682 ft 82 kts 279°
2026-05-06 15:41 33.65000 -92.87082 3796 ft 79 kts 261°
2026-05-06 15:41 33.64897 -92.87770 3894 ft 84 kts 258°
2026-05-06 15:41 33.64837 -92.88453 4056 ft 86 kts 266°
2026-05-06 15:41 33.64829 -92.89182 4254 ft 85 kts 269°
2026-05-06 15:42 33.64846 -92.89886 4374 ft 90 kts 264°
2026-05-06 15:42 33.64956 -92.90617 4619 ft 82 kts 282°
2026-05-06 15:42 33.65115 -92.91256 4821 ft 83 kts 276°
2026-05-06 15:42 33.65257 -92.91954 4942 ft 89 kts 280°
2026-05-06 15:43 33.65467 -92.92672 5099 ft 92 kts 286°
2026-05-06 15:43 33.65740 -92.93404 5214 ft 98 kts 288°
2026-05-06 15:43 33.66051 -92.94165 5320 ft 103 kts 289°
2026-05-06 15:43 33.66366 -92.94912 5511 ft 99 kts 289°
2026-05-06 15:44 33.66719 -92.95643 5622 ft 104 kts 295°
2026-05-06 15:44 33.67153 -92.96343 5741 ft 109 kts 299°
2026-05-06 15:44 33.67597 -92.97077 5867 ft 109 kts 296°
2026-05-06 15:45 33.67804 -92.97436 5944 ft 109 kts 295°
2026-05-06 15:45 33.68266 -92.98168 6061 ft 111 kts 304°
2026-05-06 15:45 33.68770 -92.98867 6205 ft 111 kts 297°
2026-05-06 15:45 33.69133 -92.99674 6355 ft 108 kts 285°
2026-05-06 15:46 33.69385 -93.00501 6507 ft 105 kts 282°
2026-05-06 15:46 33.69607 -93.01338 6598 ft 107 kts 282°
2026-05-06 15:46 33.69838 -93.02177 6734 ft 105 kts 284°
2026-05-06 15:46 33.70101 -93.03020 6777 ft 111 kts 288°
2026-05-06 15:47 33.70392 -93.03910 6823 ft 117 kts 281°
2026-05-06 15:47 33.70552 -93.04900 6810 ft 123 kts 272°
2026-05-06 15:47 33.70560 -93.05948 6813 ft 128 kts 264°
2026-05-06 15:47 33.70416 -93.07004 6815 ft 130 kts 256°
2026-05-06 15:48 33.70199 -93.08048 6949 ft 118 kts 264°
2026-05-06 15:48 33.70272 -93.08985 7198 ft 105 kts 283°
2026-05-06 15:48 33.70526 -93.09860 7222 ft 112 kts 287°
2026-05-06 15:48 33.70736 -93.10712 7424 ft 104 kts 277°
2026-05-06 15:49 33.70954 -93.11574 7469 ft 111 kts 283°
2026-05-06 15:49 33.71179 -93.12440 7625 ft 106 kts 283°
2026-05-06 15:49 33.71420 -93.13289 7694 ft 110 kts 282°
2026-05-06 15:49 33.71628 -93.14184 7744 ft 112 kts 279°
2026-05-06 15:50 33.71730 -93.15093 7881 ft 107 kts 274°
2026-05-06 15:50 33.71737 -93.16000 7928 ft 111 kts 264°
2026-05-06 15:50 33.71752 -93.16942 7990 ft 112 kts 273°
2026-05-06 15:50 33.71816 -93.17872 8022 ft 116 kts 272°
2026-05-06 15:51 33.71872 -93.18858 8019 ft 119 kts 271°
2026-05-06 15:51 33.71922 -93.19866 8015 ft 122 kts 271°
2026-05-06 15:51 33.71971 -93.20889 8011 ft 123 kts 271°
2026-05-06 15:51 33.72019 -93.21924 8012 ft 124 kts 271°
2026-05-06 15:52 33.72064 -93.22961 7989 ft 127 kts 271°
2026-05-06 15:52 33.72071 -93.23150 7973 ft 128 kts 271°
2026-05-06 15:52 33.72093 -93.23541 8457 ft 59 kts 272°
2026-05-06 15:53 33.72143 -93.24237 7938 ft 137 kts 272°
2026-05-06 15:53 33.72193 -93.25391 7793 ft 142 kts 272°
2026-05-06 15:53 33.72269 -93.26571 7778 ft 138 kts 274°
2026-05-06 15:53 33.72402 -93.27700 7761 ft 135 kts 277°
2026-05-06 15:54 33.72573 -93.28807 7760 ft 133 kts 279°
2026-05-06 15:54 33.72768 -93.29885 7762 ft 131 kts 280°
2026-05-06 15:54 33.72973 -93.30947 7763 ft 130 kts 280°
2026-05-06 15:54 33.73175 -93.32002 7766 ft 129 kts 279°
2026-05-06 15:55 33.73369 -93.33055 7772 ft 129 kts 279°
2026-05-06 15:55 33.73555 -93.34107 7774 ft 128 kts 278°
2026-05-06 15:55 33.73738 -93.35173 7765 ft 128 kts 278°
2026-05-06 15:55 33.73909 -93.36215 7765 ft 129 kts 278°
2026-05-06 15:56 33.74082 -93.37273 7763 ft 129 kts 278°
2026-05-06 15:56 33.74246 -93.38331 7765 ft 129 kts 277°
2026-05-06 15:56 33.74411 -93.39391 7765 ft 129 kts 278°
2026-05-06 15:56 33.74576 -93.40452 7765 ft 129 kts 278°
2026-05-06 15:57 33.74743 -93.41512 7765 ft 129 kts 278°
2026-05-06 15:57 33.74911 -93.42556 7775 ft 129 kts 278°
2026-05-06 15:57 33.75082 -93.43615 7772 ft 129 kts 278°
2026-05-06 15:57 33.75255 -93.44673 7778 ft 129 kts 278°
2026-05-06 15:58 33.75426 -93.45734 7776 ft 129 kts 278°
2026-05-06 15:58 33.75595 -93.46784 7771 ft 129 kts 278°
2026-05-06 15:58 33.75768 -93.47846 7771 ft 129 kts 278°
2026-05-06 15:58 33.75937 -93.48911 7771 ft 129 kts 278°
2026-05-06 15:59 33.76103 -93.49980 7774 ft 129 kts 277°
2026-05-06 15:59 33.76268 -93.51041 7765 ft 129 kts 278°
2026-05-06 15:59 33.76434 -93.52092 7767 ft 130 kts 278°
2026-05-06 15:59 33.76603 -93.53158 7766 ft 130 kts 278°
2026-05-06 16:00 33.76771 -93.54226 7780 ft 130 kts 278°
2026-05-06 16:00 33.76941 -93.55294 7768 ft 130 kts 278°
2026-05-06 16:00 33.77111 -93.56358 7770 ft 130 kts 278°
2026-05-06 16:00 33.77286 -93.57426 7774 ft 130 kts 278°
2026-05-06 16:01 33.77461 -93.58486 7769 ft 130 kts 278°
2026-05-06 16:01 33.77634 -93.59557 7769 ft 130 kts 278°
2026-05-06 16:01 33.77805 -93.60631 7769 ft 130 kts 278°
2026-05-06 16:01 33.77975 -93.61705 7771 ft 131 kts 278°
2026-05-06 16:02 33.78145 -93.62777 7764 ft 130 kts 278°
2026-05-06 16:02 33.78314 -93.63834 7765 ft 130 kts 278°
2026-05-06 16:02 33.78481 -93.64911 7773 ft 130 kts 277°
2026-05-06 16:02 33.78648 -93.65986 7766 ft 130 kts 277°
2026-05-06 16:03 33.78786 -93.67048 7766 ft 130 kts 275°
2026-05-06 16:03 33.78883 -93.68129 7766 ft 130 kts 273°
2026-05-06 16:03 33.78947 -93.69212 7766 ft 130 kts 271°
2026-05-06 16:03 33.78993 -93.70298 7766 ft 130 kts 271°
2026-05-06 16:04 33.79032 -93.71383 7766 ft 130 kts 270°
2026-05-06 16:04 33.79066 -93.72468 7767 ft 129 kts 270°
2026-05-06 16:04 33.79100 -93.73539 7767 ft 129 kts 271°
2026-05-06 16:04 33.79144 -93.74617 7767 ft 129 kts 271°
2026-05-06 16:05 33.79199 -93.75696 7770 ft 129 kts 272°
2026-05-06 16:05 33.79264 -93.76761 7770 ft 129 kts 272°
2026-05-06 16:05 33.79339 -93.77837 7769 ft 129 kts 273°
2026-05-06 16:05 33.79417 -93.78930 7768 ft 129 kts 273°
2026-05-06 16:06 33.79498 -93.79995 7770 ft 129 kts 273°
2026-05-06 16:06 33.79580 -93.81069 7767 ft 129 kts 273°
2026-05-06 16:06 33.79659 -93.82146 7773 ft 129 kts 272°
2026-05-06 16:06 33.79731 -93.83221 7768 ft 129 kts 272°
2026-05-06 16:07 33.79799 -93.84295 7762 ft 129 kts 272°
2026-05-06 16:07 33.79867 -93.85369 7761 ft 129 kts 272°
2026-05-06 16:07 33.79932 -93.86440 7766 ft 129 kts 272°
2026-05-06 16:07 33.79995 -93.87518 7762 ft 129 kts 272°
2026-05-06 16:08 33.80057 -93.88584 7761 ft 129 kts 272°
2026-05-06 16:08 33.80126 -93.89666 7760 ft 129 kts 272°
2026-05-06 16:08 33.80195 -93.90736 7761 ft 129 kts 272°
2026-05-06 16:08 33.80261 -93.91812 7761 ft 129 kts 272°
2026-05-06 16:09 33.80328 -93.92889 7763 ft 129 kts 272°
2026-05-06 16:09 33.80397 -93.93958 7764 ft 129 kts 272°
2026-05-06 16:09 33.80465 -93.95026 7768 ft 129 kts 272°
2026-05-06 16:09 33.80535 -93.96104 7764 ft 129 kts 272°
2026-05-06 16:10 33.80604 -93.97178 7758 ft 129 kts 272°
2026-05-06 16:10 33.80669 -93.98240 7758 ft 129 kts 272°
2026-05-06 16:10 33.80731 -93.99311 7759 ft 128 kts 272°
2026-05-06 16:10 33.80798 -94.00384 7758 ft 129 kts 272°
2026-05-06 16:11 33.80866 -94.01465 7755 ft 129 kts 272°
2026-05-06 16:11 33.80936 -94.02536 7755 ft 129 kts 272°
2026-05-06 16:11 33.81006 -94.03614 7755 ft 129 kts 272°
2026-05-06 16:11 33.81078 -94.04675 7755 ft 129 kts 272°
2026-05-06 16:12 33.81126 -94.05405 7758 ft 129 kts 272°
2026-05-06 16:12 33.81214 -94.06830 7766 ft 129 kts 272°
2026-05-06 16:12 33.81258 -94.07557 7759 ft 129 kts 272°
2026-05-06 16:12 33.81321 -94.08628 7760 ft 130 kts 272°
2026-05-06 16:13 33.81385 -94.09714 7763 ft 130 kts 272°
2026-05-06 16:13 33.81448 -94.10804 7764 ft 130 kts 272°
2026-05-06 16:13 33.81511 -94.11880 7760 ft 130 kts 272°
2026-05-06 16:13 33.81578 -94.12962 7762 ft 130 kts 272°
2026-05-06 16:14 33.81646 -94.14036 7770 ft 129 kts 272°
2026-05-06 16:14 33.81707 -94.15123 7764 ft 129 kts 272°
2026-05-06 16:14 33.81771 -94.16198 7765 ft 129 kts 272°
2026-05-06 16:14 33.81840 -94.17280 7732 ft 130 kts 272°
2026-05-06 16:15 33.81910 -94.18375 7615 ft 134 kts 272°
2026-05-06 16:15 33.81976 -94.19473 7585 ft 131 kts 272°
2026-05-06 16:15 33.82047 -94.20565 7524 ft 131 kts 272°
2026-05-06 16:15 33.82118 -94.21673 7443 ft 133 kts 271°
2026-05-06 16:16 33.82189 -94.22777 7400 ft 131 kts 272°
2026-05-06 16:16 33.82258 -94.23857 7339 ft 131 kts 271°
2026-05-06 16:16 33.82324 -94.24959 7277 ft 132 kts 271°
2026-05-06 16:16 33.82393 -94.26056 7237 ft 131 kts 271°
2026-05-06 16:17 33.82461 -94.27151 7172 ft 132 kts 271°
2026-05-06 16:17 33.82527 -94.28250 7128 ft 132 kts 271°
2026-05-06 16:17 33.82589 -94.29348 7076 ft 132 kts 271°
2026-05-06 16:17 33.82650 -94.30445 7019 ft 131 kts 271°
2026-05-06 16:18 33.82709 -94.31552 6918 ft 132 kts 271°
2026-05-06 16:18 33.82766 -94.32657 6812 ft 132 kts 271°
2026-05-06 16:18 33.82827 -94.33745 6736 ft 131 kts 271°
2026-05-06 16:18 33.82894 -94.34847 6639 ft 132 kts 271°
2026-05-06 16:19 33.82963 -94.35958 6543 ft 133 kts 271°
2026-05-06 16:19 33.83034 -94.37068 6468 ft 133 kts 271°
2026-05-06 16:19 33.83107 -94.38165 6385 ft 133 kts 271°
2026-05-06 16:19 33.83175 -94.39271 6290 ft 133 kts 271°
2026-05-06 16:20 33.83243 -94.40379 6213 ft 132 kts 271°
2026-05-06 16:20 33.83310 -94.41478 6124 ft 131 kts 271°
2026-05-06 16:20 33.83371 -94.42573 6023 ft 130 kts 271°
2026-05-06 16:20 33.83428 -94.43664 5906 ft 131 kts 271°
2026-05-06 16:21 33.83493 -94.44761 5814 ft 131 kts 271°
2026-05-06 16:21 33.83564 -94.45847 5729 ft 130 kts 271°
2026-05-06 16:21 33.83628 -94.46926 5619 ft 131 kts 271°
2026-05-06 16:21 33.83691 -94.48029 5535 ft 130 kts 271°
2026-05-06 16:22 33.83752 -94.49102 5438 ft 130 kts 271°
2026-05-06 16:22 33.83815 -94.50190 5324 ft 131 kts 271°
2026-05-06 16:22 33.83877 -94.51260 5263 ft 128 kts 271°
2026-05-06 16:22 33.83939 -94.52338 5174 ft 128 kts 271°
2026-05-06 16:23 33.84000 -94.53413 5079 ft 130 kts 271°
2026-05-06 16:23 33.84057 -94.54485 5030 ft 128 kts 271°
2026-05-06 16:23 33.84115 -94.55555 4938 ft 129 kts 271°
2026-05-06 16:23 33.84179 -94.56625 4863 ft 128 kts 272°
2026-05-06 16:24 33.84245 -94.57708 4803 ft 128 kts 271°
2026-05-06 16:24 33.84311 -94.58770 4726 ft 128 kts 271°
2026-05-06 16:24 33.84372 -94.59846 4645 ft 129 kts 271°
2026-05-06 16:24 33.84414 -94.60927 4573 ft 130 kts 271°
2026-05-06 16:25 33.84469 -94.62016 4490 ft 131 kts 272°
2026-05-06 16:25 33.84533 -94.63107 4421 ft 131 kts 273°
2026-05-06 16:25 33.84612 -94.64203 4331 ft 132 kts 273°
2026-05-06 16:25 33.84687 -94.65316 4245 ft 134 kts 274°
2026-05-06 16:26 33.84779 -94.66428 4179 ft 133 kts 275°
2026-05-06 16:26 33.84848 -94.67543 4102 ft 134 kts 272°
2026-05-06 16:26 33.84876 -94.68662 4026 ft 133 kts 270°
2026-05-06 16:26 33.84906 -94.69780 3944 ft 134 kts 272°
2026-05-06 16:27 33.84965 -94.70885 3880 ft 134 kts 274°
2026-05-06 16:27 33.85034 -94.72005 3818 ft 134 kts 274°
2026-05-06 16:27 33.85106 -94.73134 3747 ft 135 kts 274°
2026-05-06 16:27 33.85179 -94.74268 3690 ft 136 kts 274°
2026-05-06 16:28 33.85251 -94.75383 3616 ft 132 kts 275°
2026-05-06 16:28 33.85327 -94.76496 3442 ft 137 kts 276°
2026-05-06 16:28 33.85401 -94.77645 3307 ft 139 kts 275°
2026-05-06 16:28 33.85440 -94.78795 3196 ft 136 kts 274°
2026-05-06 16:29 33.85455 -94.79942 3063 ft 139 kts 272°
2026-05-06 16:29 33.85461 -94.81110 2931 ft 140 kts 273°
2026-05-06 16:29 33.85502 -94.82296 2817 ft 142 kts 279°
2026-05-06 16:29 33.85582 -94.83499 2707 ft 147 kts 278°
2026-05-06 16:30 33.85676 -94.84741 2606 ft 148 kts 276°
2026-05-06 16:30 33.85764 -94.85560 2540 ft 149 kts 284°
2026-05-06 16:30 33.86024 -94.87204 2448 ft 151 kts 281°
2026-05-06 16:30 33.86145 -94.88462 2357 ft 152 kts 276°
2026-05-06 16:31 33.86206 -94.89739 2273 ft 154 kts 276°
2026-05-06 16:31 33.86244 -94.91042 2185 ft 153 kts 272°
2026-05-06 16:31 33.86255 -94.92297 2103 ft 150 kts 272°
2026-05-06 16:31 33.86291 -94.93557 2036 ft 152 kts 275°
2026-05-06 16:32 33.86331 -94.94834 1951 ft 152 kts 275°
2026-05-06 16:32 33.86393 -94.96096 1903 ft 151 kts 277°
2026-05-06 16:32 33.86448 -94.97352 1843 ft 149 kts 275°
2026-05-06 16:32 33.86513 -94.98595 1783 ft 149 kts 278°
2026-05-06 16:33 33.86593 -94.99847 1715 ft 148 kts 277°
2026-05-06 16:33 33.86651 -95.01076 1656 ft 146 kts 278°
2026-05-06 16:33 33.86743 -95.02299 1600 ft 146 kts 279°
2026-05-06 16:34 33.86876 -95.04730 1583 ft 147 kts 278°
2026-05-06 16:34 33.86939 -95.05949 1572 ft 146 kts 277°
2026-05-06 16:34 33.87026 -95.07159 1554 ft 145 kts 279°
2026-05-06 16:34 33.87089 -95.08374 1531 ft 145 kts 276°
2026-05-06 16:35 33.87142 -95.09605 1525 ft 145 kts 276°
2026-05-06 16:35 33.87193 -95.10817 1509 ft 144 kts 276°
2026-05-06 16:35 33.87295 -95.11989 1483 ft 144 kts 286°
2026-05-06 16:35 33.87566 -95.13161 1469 ft 143 kts 293°
2026-05-06 16:36 33.87979 -95.14232 1449 ft 140 kts 303°
2026-05-06 16:36 33.88499 -95.15239 1424 ft 140 kts 304°
2026-05-06 16:36 33.89022 -95.16223 1420 ft 139 kts 308°
2026-05-06 16:36 33.89551 -95.17205 1392 ft 140 kts 306°
2026-05-06 16:37 33.90036 -95.18228 1380 ft 140 kts 304°
2026-05-06 16:37 33.90506 -95.19258 1381 ft 140 kts 302°
2026-05-06 16:37 33.90953 -95.20318 1354 ft 140 kts 301°
2026-05-06 16:37 33.91374 -95.21376 1326 ft 140 kts 297°
2026-05-06 16:38 33.91751 -95.22458 1298 ft 141 kts 297°
2026-05-06 16:38 33.92071 -95.23571 1244 ft 143 kts 286°
2026-05-06 16:38 33.92261 -95.24739 1299 ft 139 kts 285°
2026-05-06 16:38 33.92434 -95.25880 1335 ft 140 kts 285°
2026-05-06 16:39 33.92553 -95.26662 1329 ft 141 kts 285°
2026-05-06 16:39 33.92734 -95.27817 1389 ft 139 kts 285°
2026-05-06 16:39 33.92931 -95.28965 1393 ft 142 kts 286°
2026-05-06 16:39 33.93132 -95.30134 1415 ft 142 kts 284°
2026-05-06 16:40 33.93310 -95.31303 1444 ft 142 kts 286°
2026-05-06 16:40 33.93477 -95.32484 1466 ft 142 kts 285°
2026-05-06 16:40 33.93672 -95.33640 1487 ft 139 kts 285°
2026-05-06 16:40 33.93853 -95.34768 1517 ft 138 kts 285°
2026-05-06 16:41 33.94036 -95.35907 1547 ft 139 kts 286°
2026-05-06 16:41 33.94212 -95.37061 1570 ft 138 kts 286°
2026-05-06 16:41 33.94384 -95.38198 1604 ft 138 kts 285°
2026-05-06 16:41 33.94560 -95.39320 1672 ft 137 kts 287°
2026-05-06 16:42 33.94730 -95.40462 1699 ft 138 kts 284°
2026-05-06 16:42 33.94885 -95.41593 1738 ft 139 kts 285°
2026-05-06 16:42 33.95063 -95.42745 1783 ft 140 kts 286°
2026-05-06 16:42 33.95241 -95.43897 1836 ft 137 kts 285°
2026-05-06 16:43 33.95430 -95.45033 1887 ft 138 kts 286°
2026-05-06 16:43 33.95602 -95.46172 1927 ft 138 kts 287°
2026-05-06 16:43 33.95755 -95.47329 1951 ft 141 kts 285°
2026-05-06 16:43 33.95920 -95.48487 1999 ft 142 kts 287°
2026-05-06 16:44 33.96087 -95.49666 2012 ft 143 kts 284°
2026-05-06 16:44 33.96264 -95.50844 2059 ft 143 kts 286°
2026-05-06 16:44 33.96442 -95.52030 2097 ft 144 kts 285°
2026-05-06 16:44 33.96628 -95.53230 2115 ft 146 kts 285°
2026-05-06 16:45 33.96804 -95.54436 2147 ft 146 kts 286°
2026-05-06 16:45 33.97218 -95.55551 2070 ft 151 kts 320°
2026-05-06 16:45 33.98120 -95.56064 2092 ft 138 kts 357°
2026-05-06 16:45 33.99007 -95.55823 2162 ft 131 kts 31°
2026-05-06 16:46 33.99723 -95.55145 2012 ft 139 kts 44°
2026-05-06 16:46 34.00433 -95.54264 1719 ft 136 kts 33°
2026-05-06 16:46 34.01254 -95.54109 1385 ft 118 kts
2026-05-06 16:46 34.02021 -95.54142 989 ft 105 kts 12°
2026-05-06 16:47 34.02728 -95.54198 630 ft 98 kts 358°
2026-05-06 16:47 34.03294 -95.54215 572 ft 48 kts 17°
2026-05-06 16:47 34.03331 -95.54211 572 ft 0 kts 24°